GLO1024 SBRF-SBFN

Flight info

Callsign GLO1024
Flight time 0h 57m
Altitude FL310
Route OMNI/18 AMBET UN857 EDVUP
Aircraft C172/L-S/N

Departure

Time 2026-05-06 21:10
Airport Recife/Guararapes - Gilberto Freyre International Airport (SBRF)

Arrival

Time 2026-05-06 22:07
Airport Fernando de Noronha Airport (SBFN)
Time Latitude Longitude Altitude Speed Heading
2026-05-06 21:02 -8.13489 -34.91846 41 ft 0 kts 70°
2026-05-06 21:04 -8.13490 -34.91849 41 ft 0 kts 70°
2026-05-06 21:05 -8.13492 -34.91854 41 ft 2 kts 70°
2026-05-06 21:05 -8.13498 -34.91870 41 ft 3 kts 70°
2026-05-06 21:05 -8.13505 -34.91889 41 ft 3 kts 72°
2026-05-06 21:06 -8.13507 -34.91896 41 ft 2 kts 49°
2026-05-06 21:06 -8.13521 -34.91904 41 ft 3 kts
2026-05-06 21:06 -8.13529 -34.91903 41 ft 0 kts 347°
2026-05-06 21:06 -8.13512 -34.91910 41 ft 7 kts 339°
2026-05-06 21:07 -8.13434 -34.91940 41 ft 17 kts 344°
2026-05-06 21:07 -8.13298 -34.91981 41 ft 24 kts 342°
2026-05-06 21:07 -8.13132 -34.92036 41 ft 27 kts 342°
2026-05-06 21:07 -8.12943 -34.92098 41 ft 31 kts 341°
2026-05-06 21:08 -8.12754 -34.92166 41 ft 28 kts 341°
2026-05-06 21:08 -8.12574 -34.92227 41 ft 26 kts 341°
2026-05-06 21:08 -8.12410 -34.92282 41 ft 21 kts 341°
2026-05-06 21:08 -8.12267 -34.92330 41 ft 24 kts 341°
2026-05-06 21:09 -8.12131 -34.92375 41 ft 15 kts 341°
2026-05-06 21:09 -8.12065 -34.92405 41 ft 12 kts 313°
2026-05-06 21:09 -8.11988 -34.92479 41 ft 18 kts 320°
2026-05-06 21:09 -8.12000 -34.92553 41 ft 11 kts 189°
2026-05-06 21:10 -8.12083 -34.92530 41 ft 23 kts 161°
2026-05-06 21:10 -8.12504 -34.92389 41 ft 106 kts 161°
2026-05-06 21:10 -8.13416 -34.92081 143 ft 160 kts 161°
2026-05-06 21:10 -8.14436 -34.91719 1162 ft 157 kts 159°
2026-05-06 21:11 -8.15426 -34.91027 1782 ft 197 kts 133°
2026-05-06 21:11 -8.15906 -34.89625 2452 ft 230 kts 95°
2026-05-06 21:11 -8.15418 -34.88007 3251 ft 260 kts 61°
2026-05-06 21:11 -8.14098 -34.86698 4348 ft 271 kts 39°
2026-05-06 21:12 -8.12542 -34.85600 5565 ft 277 kts 37°
2026-05-06 21:12 -8.10978 -34.84438 6723 ft 282 kts 39°
2026-05-06 21:12 -8.09427 -34.83192 7805 ft 290 kts 41°
2026-05-06 21:12 -8.07876 -34.81853 8827 ft 297 kts 43°
2026-05-06 21:13 -8.06340 -34.80426 9827 ft 304 kts 44°
2026-05-06 21:13 -8.04817 -34.78933 10849 ft 306 kts 48°
2026-05-06 21:13 -8.03354 -34.77432 12191 ft 299 kts 49°
2026-05-06 21:13 -8.01907 -34.75890 13088 ft 308 kts 49°
2026-05-06 21:14 -8.00451 -34.74295 14042 ft 311 kts 49°
2026-05-06 21:14 -7.98998 -34.72666 15011 ft 313 kts 50°
2026-05-06 21:14 -7.97548 -34.71013 15892 ft 320 kts 50°
2026-05-06 21:14 -7.96065 -34.69300 16679 ft 327 kts 50°
2026-05-06 21:15 -7.94567 -34.67534 17769 ft 335 kts 50°
2026-05-06 21:15 -7.93067 -34.65758 19247 ft 333 kts 50°
2026-05-06 21:15 -7.91563 -34.63936 20252 ft 346 kts 50°
2026-05-06 21:15 -7.90016 -34.62042 21238 ft 354 kts 50°
2026-05-06 21:16 -7.88449 -34.60109 22241 ft 361 kts 50°
2026-05-06 21:16 -7.86859 -34.58126 23239 ft 366 kts 49°
2026-05-06 21:16 -7.85255 -34.56131 24239 ft 369 kts 49°
2026-05-06 21:16 -7.83641 -34.54126 25239 ft 370 kts 48°
2026-05-06 21:17 -7.82016 -34.52106 26102 ft 374 kts 48°
2026-05-06 21:17 -7.80368 -34.50058 26893 ft 379 kts 48°
2026-05-06 21:17 -7.78709 -34.47990 27675 ft 382 kts 48°
2026-05-06 21:17 -7.76967 -34.45967 28391 ft 384 kts 40°
2026-05-06 21:18 -7.74819 -34.44398 29111 ft 382 kts 28°
2026-05-06 21:18 -7.72500 -34.43080 29747 ft 386 kts 26°
2026-05-06 21:18 -7.70265 -34.41859 30352 ft 385 kts 26°
2026-05-06 21:18 -7.68092 -34.40670 30947 ft 383 kts 26°
2026-05-06 21:19 -7.65990 -34.39521 31548 ft 381 kts 26°
2026-05-06 21:19 -7.63757 -34.38300 32152 ft 379 kts 26°
2026-05-06 21:19 -7.61406 -34.37041 32648 ft 378 kts 26°
2026-05-06 21:19 -7.59236 -34.35902 32918 ft 381 kts 26°
2026-05-06 21:20 -7.56769 -34.34609 32967 ft 393 kts 26°
2026-05-06 21:20 -7.54328 -34.33328 32969 ft 404 kts 26°
2026-05-06 21:20 -7.51826 -34.32016 32969 ft 413 kts 26°
2026-05-06 21:21 -7.46629 -34.29289 32966 ft 429 kts 26°
2026-05-06 21:21 -7.41269 -34.26476 32965 ft 442 kts 26°
2026-05-06 21:22 -7.35871 -34.23642 32964 ft 452 kts 26°
2026-05-06 21:22 -7.30155 -34.20661 32964 ft 460 kts 25°
2026-05-06 21:23 -7.24461 -34.17695 32964 ft 462 kts 26°
2026-05-06 21:23 -7.18754 -34.14744 32962 ft 460 kts 26°
2026-05-06 21:24 -7.13097 -34.11813 32962 ft 460 kts 26°
2026-05-06 21:24 -7.07413 -34.08870 32962 ft 460 kts 26°
2026-05-06 21:25 -7.01727 -34.05924 32962 ft 460 kts 26°
2026-05-06 21:25 -6.96049 -34.02982 32960 ft 461 kts 26°
2026-05-06 21:26 -6.90366 -34.00040 32959 ft 460 kts 26°
2026-05-06 21:26 -6.84682 -33.97105 32959 ft 460 kts 25°
2026-05-06 21:27 -6.78994 -33.94164 32958 ft 461 kts 26°
2026-05-06 21:27 -6.73311 -33.91222 32958 ft 461 kts 25°
2026-05-06 21:28 -6.67639 -33.88286 32958 ft 460 kts 26°
2026-05-06 21:28 -6.62017 -33.85378 32958 ft 460 kts 26°
2026-05-06 21:29 -6.56340 -33.82442 32958 ft 460 kts 26°
2026-05-06 21:29 -6.50645 -33.79505 32958 ft 460 kts 26°
2026-05-06 21:30 -6.45148 -33.76704 32958 ft 460 kts 25°
2026-05-06 21:30 -6.39253 -33.73659 32956 ft 462 kts 26°
2026-05-06 21:31 -6.33551 -33.70710 32956 ft 461 kts 26°
2026-05-06 21:31 -6.27853 -33.67766 32957 ft 462 kts 26°
2026-05-06 21:32 -6.22155 -33.64827 32956 ft 462 kts 26°
2026-05-06 21:32 -6.13586 -33.60401 32955 ft 465 kts 26°
2026-05-06 21:33 -6.07851 -33.57441 32955 ft 464 kts 26°
2026-05-06 21:33 -6.02131 -33.54488 32954 ft 464 kts 26°
2026-05-06 21:34 -5.96410 -33.51538 32955 ft 464 kts 26°
2026-05-06 21:34 -5.90684 -33.48588 32953 ft 461 kts 26°
2026-05-06 21:35 -5.85000 -33.45655 32953 ft 461 kts 26°
2026-05-06 21:35 -5.79309 -33.42720 32953 ft 461 kts 26°
2026-05-06 21:36 -5.73624 -33.39788 32953 ft 461 kts 26°
2026-05-06 21:36 -5.67937 -33.36855 32953 ft 461 kts 26°
2026-05-06 21:37 -5.62235 -33.33921 32951 ft 460 kts 27°
2026-05-06 21:37 -5.56567 -33.30999 32951 ft 460 kts 27°
2026-05-06 21:38 -5.50862 -33.28061 32951 ft 460 kts 27°
2026-05-06 21:38 -5.45157 -33.25150 32951 ft 461 kts 27°
2026-05-06 21:39 -5.39521 -33.22248 32951 ft 442 kts 26°
2026-05-06 21:39 -5.36844 -33.20870 32669 ft 428 kts 26°
2026-05-06 21:39 -5.34227 -33.19538 32179 ft 421 kts 26°
2026-05-06 21:40 -5.31657 -33.18198 31690 ft 414 kts 26°
2026-05-06 21:40 -5.29129 -33.16902 31167 ft 408 kts 26°
2026-05-06 21:40 -5.26595 -33.15605 30635 ft 404 kts 26°
2026-05-06 21:40 -5.24131 -33.14322 30024 ft 396 kts 26°
2026-05-06 21:41 -5.21709 -33.13086 29298 ft 392 kts 26°
2026-05-06 21:41 -5.19296 -33.11841 28640 ft 388 kts 26°
2026-05-06 21:41 -5.16929 -33.10618 28048 ft 382 kts 26°
2026-05-06 21:41 -5.14566 -33.09414 27479 ft 376 kts 26°
2026-05-06 21:42 -5.12270 -33.08221 26950 ft 370 kts 26°
2026-05-06 21:42 -5.10018 -33.07062 26452 ft 364 kts 26°
2026-05-06 21:42 -5.07774 -33.05918 25967 ft 358 kts 26°
2026-05-06 21:42 -5.05583 -33.04780 25494 ft 352 kts 26°
2026-05-06 21:43 -5.03428 -33.03675 25027 ft 347 kts 26°
2026-05-06 21:43 -5.01300 -33.02588 24596 ft 341 kts 26°
2026-05-06 21:43 -4.99219 -33.01506 24183 ft 335 kts 26°
2026-05-06 21:43 -4.97161 -33.00453 23793 ft 333 kts 26°
2026-05-06 21:44 -4.95096 -32.99394 23411 ft 335 kts 27°
2026-05-06 21:44 -4.94284 -32.98971 23252 ft 334 kts 27°
2026-05-06 21:45 -4.94123 -32.98887 23221 ft 334 kts 27°
2026-05-06 21:45 -4.92087 -32.97841 22924 ft 326 kts 27°
2026-05-06 21:45 -4.90078 -32.96816 22627 ft 326 kts 27°
2026-05-06 21:46 -4.88077 -32.95778 22288 ft 324 kts 27°
2026-05-06 21:46 -4.86071 -32.94749 21923 ft 322 kts 27°
2026-05-06 21:46 -4.84096 -32.93739 21548 ft 320 kts 27°
2026-05-06 21:46 -4.82128 -32.92719 21167 ft 318 kts 27°
2026-05-06 21:47 -4.80173 -32.91717 20786 ft 316 kts 27°
2026-05-06 21:47 -4.78225 -32.90720 20402 ft 314 kts 27°
2026-05-06 21:47 -4.76289 -32.89725 20018 ft 312 kts 27°
2026-05-06 21:47 -4.74361 -32.88728 19634 ft 310 kts 27°
2026-05-06 21:48 -4.72451 -32.87739 19254 ft 309 kts 27°
2026-05-06 21:48 -4.70561 -32.86758 18876 ft 307 kts 27°
2026-05-06 21:48 -4.68677 -32.85779 18499 ft 305 kts 27°
2026-05-06 21:48 -4.66802 -32.84805 18124 ft 303 kts 27°
2026-05-06 21:49 -4.64933 -32.83837 17743 ft 303 kts 28°
2026-05-06 21:49 -4.63034 -32.82851 17248 ft 311 kts 29°
2026-05-06 21:49 -4.61056 -32.81848 17053 ft 328 kts 25°
2026-05-06 21:49 -4.58865 -32.81146 16907 ft 333 kts 16°
2026-05-06 21:50 -4.56632 -32.80634 16389 ft 331 kts 14°
2026-05-06 21:50 -4.54379 -32.80151 15757 ft 330 kts 14°
2026-05-06 21:50 -4.52149 -32.79677 15233 ft 327 kts 14°
2026-05-06 21:50 -4.49954 -32.79225 14776 ft 321 kts 14°
2026-05-06 21:51 -4.47786 -32.78790 14356 ft 315 kts 13°
2026-05-06 21:51 -4.45668 -32.78373 13964 ft 309 kts 13°
2026-05-06 21:51 -4.43578 -32.77960 13590 ft 303 kts 13°
2026-05-06 21:51 -4.41532 -32.77555 13214 ft 299 kts 13°
2026-05-06 21:52 -4.39511 -32.77151 12837 ft 295 kts 14°
2026-05-06 21:52 -4.37682 -32.76780 12491 ft 291 kts 14°
2026-05-06 21:52 -4.36462 -32.76532 12261 ft 288 kts 13°
2026-05-06 21:52 -4.35080 -32.76253 11997 ft 287 kts 14°
2026-05-06 21:53 -4.33391 -32.75905 11668 ft 283 kts 14°
2026-05-06 21:53 -4.31301 -32.75473 11264 ft 279 kts 14°
2026-05-06 21:53 -4.29417 -32.75085 10905 ft 274 kts 14°
2026-05-06 21:53 -4.27595 -32.74709 10537 ft 270 kts 14°
2026-05-06 21:54 -4.25757 -32.74327 10154 ft 269 kts
2026-05-06 21:54 -4.23919 -32.73943 9777 ft 269 kts
2026-05-06 21:54 -4.22096 -32.73567 9400 ft 267 kts
2026-05-06 21:54 -4.20290 -32.73195 9024 ft 265 kts 10°
2026-05-06 21:55 -4.18502 -32.72825 8684 ft 261 kts 10°
2026-05-06 21:55 -4.16739 -32.72460 8359 ft 258 kts 11°
2026-05-06 21:55 -4.16235 -32.72355 8265 ft 257 kts 11°
2026-05-06 21:55 -4.14741 -32.72046 7985 ft 255 kts 11°
2026-05-06 21:56 -4.13023 -32.71690 7685 ft 248 kts 11°
2026-05-06 21:56 -4.11355 -32.71344 7359 ft 245 kts 12°
2026-05-06 21:56 -4.09703 -32.71002 7031 ft 241 kts 12°
2026-05-06 21:56 -4.08067 -32.70663 6706 ft 241 kts 13°
2026-05-06 21:57 -4.06439 -32.70324 6381 ft 238 kts 12°
2026-05-06 21:57 -4.04841 -32.69993 6058 ft 233 kts 12°
2026-05-06 21:57 -4.03271 -32.69666 5719 ft 230 kts 12°
2026-05-06 21:57 -4.01710 -32.69341 5388 ft 230 kts 12°
2026-05-06 21:58 -4.00155 -32.69019 5065 ft 228 kts 12°
2026-05-06 21:58 -3.98612 -32.68699 4737 ft 226 kts 12°
2026-05-06 21:58 -3.97075 -32.68380 4411 ft 225 kts 12°
2026-05-06 21:58 -3.95569 -32.68064 4083 ft 219 kts 12°
2026-05-06 21:59 -3.94099 -32.67742 3751 ft 214 kts 14°
2026-05-06 21:59 -3.92716 -32.67301 3451 ft 205 kts 20°
2026-05-06 21:59 -3.91431 -32.66789 3125 ft 197 kts 24°
2026-05-06 21:59 -3.90200 -32.66250 2832 ft 186 kts 25°
2026-05-06 22:00 -3.89049 -32.65730 2548 ft 177 kts 26°
2026-05-06 22:00 -3.88007 -32.65259 2467 ft 155 kts 26°
2026-05-06 22:00 -3.87068 -32.64833 2445 ft 141 kts 26°
2026-05-06 22:00 -3.86209 -32.64444 2502 ft 133 kts 26°
2026-05-06 22:01 -3.85347 -32.64063 2510 ft 137 kts 25°
2026-05-06 22:01 -3.84509 -32.63640 2483 ft 134 kts 35°
2026-05-06 22:01 -3.83996 -32.62901 2476 ft 129 kts 73°
2026-05-06 22:01 -3.83929 -32.62014 2562 ft 129 kts 93°
2026-05-06 22:02 -3.83982 -32.61126 2509 ft 127 kts 97°
2026-05-06 22:02 -3.84052 -32.60253 2502 ft 126 kts 98°
2026-05-06 22:02 -3.84127 -32.59374 2500 ft 127 kts 98°
2026-05-06 22:02 -3.84199 -32.58502 2501 ft 127 kts 98°
2026-05-06 22:03 -3.84270 -32.57621 2500 ft 127 kts 98°
2026-05-06 22:03 -3.84340 -32.56743 2501 ft 127 kts 98°
2026-05-06 22:03 -3.84409 -32.55865 2501 ft 127 kts 98°
2026-05-06 22:03 -3.84478 -32.54985 2460 ft 128 kts 98°
2026-05-06 22:04 -3.84546 -32.54110 2311 ft 126 kts 98°
2026-05-06 22:04 -3.84613 -32.53232 2140 ft 125 kts 98°
2026-05-06 22:04 -3.84679 -32.52363 1975 ft 125 kts 98°
2026-05-06 22:04 -3.84746 -32.51502 1812 ft 125 kts 98°
2026-05-06 22:05 -3.84812 -32.50636 1646 ft 124 kts 98°
2026-05-06 22:05 -3.84877 -32.49778 1482 ft 123 kts 98°
2026-05-06 22:05 -3.84943 -32.48928 1319 ft 123 kts 98°
2026-05-06 22:05 -3.85007 -32.48076 1156 ft 123 kts 98°
2026-05-06 22:06 -3.85072 -32.47224 993 ft 122 kts 97°
2026-05-06 22:06 -3.85136 -32.46383 833 ft 122 kts 97°
2026-05-06 22:06 -3.85200 -32.45546 672 ft 121 kts 97°
2026-05-06 22:06 -3.85263 -32.44715 510 ft 119 kts 97°
2026-05-06 22:07 -3.85326 -32.43897 358 ft 118 kts 97°
2026-05-06 22:07 -3.85388 -32.43073 205 ft 118 kts 97°
2026-05-06 22:07 -3.85445 -32.42354 188 ft 73 kts 96°
2026-05-06 22:07 -3.85464 -32.42102 188 ft 24 kts 96°
2026-05-06 22:08 -3.85478 -32.41916 188 ft 28 kts 95°
2026-05-06 22:08 -3.85494 -32.41714 188 ft 30 kts 88°
2026-05-06 22:08 -3.85491 -32.41541 188 ft 17 kts 50°
2026-05-06 22:08 -3.85490 -32.41479 188 ft 9 kts 166°
2026-05-06 22:09 -3.85516 -32.41519 188 ft 10 kts 297°
2026-05-06 22:09 -3.85501 -32.41584 188 ft 12 kts 275°
2026-05-06 22:09 -3.85493 -32.41689 188 ft 18 kts 275°
2026-05-06 22:09 -3.85482 -32.41834 188 ft 24 kts 274°
2026-05-06 22:10 -3.85474 -32.41970 188 ft 16 kts 273°
2026-05-06 22:10 -3.85467 -32.42102 188 ft 22 kts 272°
2026-05-06 22:10 -3.85455 -32.42275 188 ft 26 kts 274°
2026-05-06 22:10 -3.85437 -32.42458 188 ft 26 kts 275°
2026-05-06 22:11 -3.85424 -32.42627 188 ft 19 kts 274°
2026-05-06 22:11 -3.85434 -32.42731 188 ft 11 kts 220°
2026-05-06 22:11 -3.85484 -32.42751 188 ft 10 kts 199°
2026-05-06 22:11 -3.85556 -32.42776 188 ft 10 kts 199°
2026-05-06 22:12 -3.85598 -32.42785 188 ft 4 kts 155°
2026-05-06 22:12 -3.85605 -32.42778 188 ft 0 kts 131°